Cosmos 2360 Rocket - Orbit

View from above orbital plane
View from above orbital plane
View from above satellite
View from above satellite

Ground track
Ground track

The orbit data is extracted from the following two-line orbital elements,

1 25407U 98045B   13140.06638889  .00000229  00000-0  14132-3 0  1945
2 25407 071.0124 290.3970 0009441 307.5760 172.7542 14.15601521765430
Epoch (UTC): 20 May 2013 01:35:36
Eccentricity: 0.0009441
inclination: 71.0124°
perigee height: 833 km
apogee height: 847 km
right ascension of ascending node: 290.3970°
argument of perigee: 307.5760°
revolutions per day: 14.15601521
mean anomaly at epoch: 172.7542°
orbit number at epoch: 76543

The dashed part of the orbit path shows where the satellite is in the earth's shadow,  

Developed and maintained by Chris Peat, Heavens-Above GmbH. Please read the updated FAQ before sending e-mail. Imprint. DLR